EN

Hourly Weather Kapitanka

Today, 22 October, Thursday

Time Temperature Precipitation Wind Pressure Humidity
00:00 +10°C° 0 mm 3 mps 752 mmHg 67%
01:00 +9°C° 0 mm 2 mps 752 mmHg 68%
02:00 +9°C° 0 mm 2 mps 751 mmHg 71%
03:00 +9°C° 0 mm 2 mps 751 mmHg 71%
04:00 +10°C° 0 mm 1 mps 751 mmHg 71%
05:00 +10°C° 0 mm 1 mps 751 mmHg 72%
06:00 +10°C° 0 mm 1 mps 751 mmHg 69%
07:00 +11°C° 0 mm 1 mps 751 mmHg 65%
08:00 +11°C° 0 mm 1 mps 751 mmHg 62%
09:00 +13°C° 0 mm 1 mps 752 mmHg 55%
10:00 +15°C° 0 mm 1 mps 752 mmHg 47%
11:00 +18°C° 0 mm 1 mps 752 mmHg 40%
12:00 +19°C° 0 mm 1 mps 752 mmHg 36%
13:00 +20°C° 0 mm 1 mps 752 mmHg 32%
14:00 +21°C° 0 mm 1 mps 752 mmHg 28%
15:00 +20°C° 0 mm 1 mps 751 mmHg 30%
16:00 +19°C° 0 mm 1 mps 751 mmHg 32%
17:00 +18°C° 0 mm 1 mps 751 mmHg 35%
18:00 +16°C° 0 mm 1 mps 751 mmHg 36%
19:00 +16°C° 0 mm 1 mps 751 mmHg 37%
20:00 +15°C° 0 mm 1 mps 752 mmHg 39%
21:00 +15°C° 0 mm 1 mps 751 mmHg 40%
22:00 +14°C° 0 mm 1 mps 751 mmHg 41%
23:00 +14°C° 0 mm 1 mps 751 mmHg 42%

Tomorrow, 23 October, Friday

Time Temperature Precipitation Wind Pressure Humidity
00:00 +14°C° 0 mm 1 mps 751 mmHg 42%
01:00 +13°C° 0 mm 1 mps 751 mmHg 43%
02:00 +13°C° 0 mm 1 mps 751 mmHg 44%
03:00 +13°C° 0 mm 1 mps 751 mmHg 45%
04:00 +11°C° 0 mm 0 mps 751 mmHg 46%
05:00 +11°C° 0 mm 0 mps 750 mmHg 47%
06:00 +12°C° 0 mm 1 mps 750 mmHg 46%
07:00 +13°C° 0 mm 1 mps 750 mmHg 46%
08:00 +13°C° 0 mm 1 mps 750 mmHg 45%
09:00 +15°C° 0 mm 2 mps 750 mmHg 43%
10:00 +17°C° 0 mm 2 mps 750 mmHg 40%
11:00 +19°C° 0 mm 3 mps 750 mmHg 37%
12:00 +20°C° 0 mm 3 mps 749 mmHg 36%
13:00 +20°C° 0 mm 3 mps 749 mmHg 35%
14:00 +21°C° 0 mm 4 mps 749 mmHg 34%
15:00 +20°C° 0 mm 3 mps 748 mmHg 38%
16:00 +18°C° 0 mm 3 mps 748 mmHg 41%
17:00 +17°C° 0 mm 3 mps 748 mmHg 45%
18:00 +16°C° 0 mm 3 mps 748 mmHg 48%
19:00 +16°C° 0 mm 2 mps 748 mmHg 50%
20:00 +15°C° 0 mm 2 mps 748 mmHg 52%
21:00 +14°C° 0 mm 2 mps 748 mmHg 53%
22:00 +14°C° 0 mm 2 mps 747 mmHg 53%
23:00 +14°C° 0 mm 2 mps 747 mmHg 53%

Day after tomorrow, 24 October, Saturday

Time Temperature Precipitation Wind Pressure Humidity
00:00 +13°C° 0 mm 1 mps 747 mmHg 54%
01:00 +13°C° 0 mm 1 mps 747 mmHg 54%
02:00 +13°C° 0 mm 1 mps 747 mmHg 55%
03:00 +13°C° 0 mm 1 mps 747 mmHg 57%
04:00 +12°C° 0 mm 1 mps 747 mmHg 58%
05:00 +12°C° 0 mm 1 mps 747 mmHg 60%
06:00 +13°C° 0 mm 1 mps 747 mmHg 59%
07:00 +13°C° 0 mm 1 mps 747 mmHg 59%
08:00 +13°C° 0 mm 0 mps 747 mmHg 58%
09:00 +14°C° 0 mm 0 mps 747 mmHg 55%
10:00 +16°C° 0 mm 1 mps 747 mmHg 51%
11:00 +19°C° 0 mm 1 mps 747 mmHg 48%
12:00 +19°C° 0 mm 1 mps 747 mmHg 46%
13:00 +20°C° 0 mm 1 mps 747 mmHg 44%
14:00 +21°C° 0 mm 1 mps 746 mmHg 43%
15:00 +20°C° 0 mm 1 mps 746 mmHg 45%
16:00 +19°C° 0 mm 1 mps 746 mmHg 48%
17:00 +18°C° 0 mm 1 mps 746 mmHg 50%
18:00 +18°C° 0 mm 1 mps 746 mmHg 51%
19:00 +18°C° 0 mm 1 mps 747 mmHg 51%
20:00 +16°C° 0 mm 2 mps 747 mmHg 51%
21:00 +16°C° 0.1 mm 2 mps 747 mmHg 55%
22:00 +14°C° 0.1 mm 3 mps 747 mmHg 58%
23:00 +14°C° 0.1 mm 4 mps 747 mmHg 62%

, 25 October, Sunday

Time Temperature Precipitation Wind Pressure Humidity
00:00 +13°C° 0 mm 3 mps 747 mmHg 65%
01:00 +13°C° 0 mm 3 mps 747 mmHg 68%
02:00 +12°C° 0 mm 3 mps 748 mmHg 72%
03:00 +12°C° 0 mm 3 mps 748 mmHg 75%
04:00 +11°C° 0 mm 4 mps 748 mmHg 78%
05:00 +11°C° 0 mm 4 mps 749 mmHg 82%
06:00 +11°C° 0 mm 4 mps 749 mmHg 82%
07:00 +11°C° 0 mm 4 mps 749 mmHg 83%
08:00 +12°C° 0 mm 4 mps 749 mmHg 84%
09:00 +13°C° 0 mm 4 mps 750 mmHg 78%
10:00 +14°C° 0 mm 4 mps 750 mmHg 73%
11:00 +17°C° 0 mm 4 mps 750 mmHg 67%
12:00 +17°C° 0 mm 4 mps 750 mmHg 66%
13:00 +17°C° 0 mm 4 mps 750 mmHg 66%
14:00 +17°C° 0 mm 3 mps 750 mmHg 65%
15:00 +16°C° 0 mm 3 mps 750 mmHg 67%
16:00 +16°C° 0 mm 3 mps 750 mmHg 69%
17:00 +15°C° 0 mm 2 mps 750 mmHg 71%
18:00 +14°C° 0 mm 2 mps 750 mmHg 74%
19:00 +13°C° 0 mm 2 mps 751 mmHg 77%
20:00 +13°C° 0 mm 2 mps 751 mmHg 81%
21:00 +12°C° 0 mm 2 mps 751 mmHg 82%
22:00 +12°C° 0 mm 2 mps 751 mmHg 83%
23:00 +12°C° 0 mm 2 mps 751 mmHg 84%

25 October, Sunday

Time Temperature Precipitation Wind Pressure Humidity
00:00 +13°C° 0 mm 3 mps 747 mmHg 65%
01:00 +13°C° 0 mm 3 mps 747 mmHg 68%
02:00 +12°C° 0 mm 3 mps 748 mmHg 72%
03:00 +12°C° 0 mm 3 mps 748 mmHg 75%
04:00 +11°C° 0 mm 4 mps 748 mmHg 78%
05:00 +11°C° 0 mm 4 mps 749 mmHg 82%
06:00 +11°C° 0 mm 4 mps 749 mmHg 82%
07:00 +11°C° 0 mm 4 mps 749 mmHg 83%
08:00 +12°C° 0 mm 4 mps 749 mmHg 84%
09:00 +13°C° 0 mm 4 mps 750 mmHg 78%
10:00 +14°C° 0 mm 4 mps 750 mmHg 73%
11:00 +17°C° 0 mm 4 mps 750 mmHg 67%
12:00 +17°C° 0 mm 4 mps 750 mmHg 66%
13:00 +17°C° 0 mm 4 mps 750 mmHg 66%
14:00 +17°C° 0 mm 3 mps 750 mmHg 65%
15:00 +16°C° 0 mm 3 mps 750 mmHg 67%
16:00 +16°C° 0 mm 3 mps 750 mmHg 69%
17:00 +15°C° 0 mm 2 mps 750 mmHg 71%
18:00 +14°C° 0 mm 2 mps 750 mmHg 74%
19:00 +13°C° 0 mm 2 mps 751 mmHg 77%
20:00 +13°C° 0 mm 2 mps 751 mmHg 81%
21:00 +12°C° 0 mm 2 mps 751 mmHg 82%
22:00 +12°C° 0 mm 2 mps 751 mmHg 83%
23:00 +12°C° 0 mm 2 mps 751 mmHg 84%

26 October, Monday

Time Temperature Precipitation Wind Pressure Humidity
00:00 +10°C° 0 mm 2 mps 751 mmHg 84%
01:00 +10°C° 0 mm 3 mps 751 mmHg 84%
02:00 +10°C° 0 mm 3 mps 751 mmHg 84%
03:00 +9°C° 0 mm 3 mps 751 mmHg 85%
04:00 +9°C° 0 mm 3 mps 751 mmHg 87%
05:00 +9°C° 0 mm 3 mps 751 mmHg 88%
06:00 +10°C° 0 mm 3 mps 751 mmHg 86%
07:00 +10°C° 0 mm 4 mps 751 mmHg 83%
08:00 +11°C° 0 mm 4 mps 751 mmHg 81%
09:00 +13°C° 0 mm 5 mps 751 mmHg 75%
10:00 +14°C° 0 mm 5 mps 751 mmHg 69%
11:00 +16°C° 0 mm 5 mps 751 mmHg 63%
12:00 +16°C° 0 mm 5 mps 751 mmHg 60%
13:00 +17°C° 0 mm 5 mps 751 mmHg 58%
14:00 +19°C° 0 mm 5 mps 751 mmHg 55%
15:00 +17°C° 0 mm 5 mps 750 mmHg 58%
16:00 +18°C° 0 mm 4 mps 750 mmHg 61%
17:00 +17°C° 0 mm 4 mps 750 mmHg 64%
18:00 +15°C° 0 mm 4 mps 750 mmHg 67%
19:00 +15°C° 0 mm 4 mps 750 mmHg 69%
20:00 +14°C° 0 mm 4 mps 750 mmHg 71%
21:00 +14°C° 0 mm 4 mps 750 mmHg 72%
22:00 +14°C° 0 mm 4 mps 750 mmHg 73%
23:00 +14°C° 0 mm 4 mps 750 mmHg 73%

27 October, Tuesday

Time Temperature Precipitation Wind Pressure Humidity
00:00 +13°C° 0 mm 4 mps 750 mmHg 75%
01:00 +13°C° 0 mm 4 mps 750 mmHg 77%
02:00 +13°C° 0 mm 4 mps 750 mmHg 79%
03:00 +12°C° 0 mm 4 mps 750 mmHg 80%
04:00 +12°C° 0 mm 4 mps 750 mmHg 80%
05:00 +12°C° 0 mm 4 mps 749 mmHg 81%
06:00 +12°C° 0 mm 4 mps 750 mmHg 80%
07:00 +13°C° 0 mm 4 mps 750 mmHg 80%
08:00 +13°C° 0 mm 4 mps 750 mmHg 79%
09:00 +15°C° 0 mm 4 mps 750 mmHg 72%
10:00 +17°C° 0 mm 4 mps 750 mmHg 66%
11:00 +19°C° 0 mm 4 mps 750 mmHg 59%
12:00 +20°C° 0 mm 4 mps 750 mmHg 56%
13:00 +21°C° 0 mm 4 mps 750 mmHg 52%
14:00 +22°C° 0 mm 4 mps 750 mmHg 48%
15:00 +20°C° 0 mm 4 mps 750 mmHg 52%
16:00 +19°C° 0 mm 4 mps 750 mmHg 56%
17:00 +18°C° 0 mm 4 mps 750 mmHg 60%
18:00 +17°C° 0 mm 4 mps 750 mmHg 63%
19:00 +15°C° 0 mm 5 mps 750 mmHg 65%
20:00 +15°C° 0 mm 5 mps 750 mmHg 67%
21:00 +14°C° 0 mm 5 mps 750 mmHg 70%
22:00 +13°C° 0 mm 5 mps 750 mmHg 72%
23:00 +12°C° 0 mm 4 mps 750 mmHg 74%
Show more

We Need Your Consent

Meteoprog and our Service Providers may store and access personal data such as cookies, device identifiers or other similar technologies on your device and process such data to personalise content and ads, as well as provide social media features and to analyse the traffic.

  • Store and/or access information on your device

    Cookies, device identifiers or other information can be stored or accessed on your device for the purposes indicated above.

  • Personalised ads and content, ad and content measurement, audience insights, and products development

    Ads and content can be personalised based on a profile. More data can be added to better personalise ads and content. Ad and content performance can be measured. Insights about the audience who saw the ads and content can be derived. Such data can be used to develop or improve user’s experience, systems and software.

By clicking ‘I Agree’ you will allow the use of indicated cookies, device identifiers, web beacons or other similar technologies. Your settings can be changed in the browser on your device.

For certain purposes, legitimate interests may be relied on, rather than consent. You can read more about this in our Privacy and Cookie Policy.